EHI
0 0 0 0 0 0 0 0 0 0 0 0 0 0 0 0 0 0 0 0 0 0 0 0 0 0 0 0 0 0 0 0 0 0 0 0 0 0 0 0 0 0 0
0 0 0 0 0 0 0 0 0 0 0 0 0 0 0 0 0 0 0 0 0 0 0 0 0 0 0 0 0 0 0 0 0 0 0 0 0 0 0 0 0 0 0
0 0 0 0 0 0 0 0 0 0 0 0 0 0 0 0 0 0 0 0 0 0 0 0 0 0 0 0 0 0 0 0 0 0 0 0 0 0 0 0 0 0 0
0 0 0 0 0 0 0 0 0 0 0 0 0 0 0 0 0 0 0 0 0 0 0 0 0 0 0 0 0 0 0 0 0 0 0 0 0 0 0 0 0 0 0
0 0 0 0 0 0 0 0 0 0 0 0 0 0 0 0 0 0 0 0 0 0 0 0 0 0 0 0 0 0 0 0 0 0 0 0 0 0 0 0 0 0 0
0 0 0 0 0 0 0 0 0 0 0 0 0 0 0 0 0 0 0 0 0 0 0 0 0 0 0 0 0 0 0 0 0 0 0 0 0 0 0 0 0 0 0
0 0 0 0 0 0 0 0 0 0 0 0 0 0 0 0 0 0 0 0 0 0 0 0 0 0 0 0 0 0 0 0 0 0 0 0 0 0 0 0 0 0 0
0 0 0 0 0 0 0 0 0 0 0 0 0 0 0 0 0 0 0 0 0 0 0 0 0 0 0 0 0 0 0 0 0 0 0 0 0 0 0 0 0 0 0
0 0 0 0 0 0 0 0 0 0 0 0 0 0 0 0 0 0 0 0 0 0 0 0 0 0 0 0 0 0 0 0 0 0 0 0 0 0 0 0 0 0 0
0 0 0 0 0 0 0 0 0 0 0 0 0 0 0 0 0 0 0 0 0 0 0 0 0 0 0 0 0 0 0 0 0 0 0 0 0 0 0 0 0 0 0
0 0 0 0 0 0 0 0 0 0 0 0 0 0 0 0 0 0 0 0 0 0 0 0 0 0 0 0 0 0 0 0 0 0 0 0 0 0 0 0 0 0 0
0 0 0 0 0 0 0 0 0 0 0 0 0 0 0 0 0 0 0 0 0 0 0 0 0 0 0 0 0 0 0 0 0 0 0 0 0 0 0 0 0 0 0
0 0 0 0 0 0 0 0 0 0 0 0 0 0 0 0 0 0 0 0 0 0 0 0 0 0 0 0 0 0 0 0 0 0 0 0 0 0 0 0 0 0 0
0 0 0 0 0 0 0 0 0 0 0 0 0 0 0 0 0 0 0 0 0 0 0 0 0 0 0 0 0 0 0 0 0 0 0 0 0 0 0 0 0 0 0
0 0 0 0 0 0 0 0 0 0 0 0 0 0 0 0 0 0 0 0 0 0 0 0 0 0 0 0 0 0 0 0 0 0 0 0 0 0 0 0 0 0 0
0 0 0 0 0 0 0 0 0 0 0 0 0 0 0 0 0 0 0 0 0 0 0 0 0 0 0 0 0 0 0 0 0 0 0 0 0 0 0 0 0 0 0
0 0 0 0 0 0 0 0 0 0 0 0 0 0 0 0 0 0 0 0 0 0 0 0 0 0 0 0 0 0 0 0 0 0 0 0 0 0 0 0 0 0 0
0 0 0 0 0 0 0 0 0 0 0 0 0 0 0 0 0 0 0 0 0 0 0 0 0 0 0 0 0 0 0 0 0 0 0 0 0 0 0 0 0 0 0
0 0 0 0 0 0 0 0 0 0 0 0 0 0 0 0 0 0 0 0 0 0 0 0 0 0 0 0 0 0 0 0 0 0 0 0 0 0 0 0 0 0 0
0 0 0 0 0 0 0 0 0 0 0 0 0 0 0 0 0 0 0 0 0 0 0 0 0 0 0 0 0 0 0 0 0 0 0 0 0 0 0 0 0 0 0
0 0 0 0 0 0 0 0 0 0 0 0 0 0 0 0 0 0 0 0 0 0 0 0 0 0 0 0 0 0 0 0 0 0 0 0 0 0 0 0 0 0 0
0 0 0 0 0 0 0 0 0 0 0 0 0 0 0 0 0 0 0 0 0 0 0 0 0 0 0 0 0 0 0 0 0 0 0 0 0 0 0 0 0 0 0
0 0 0 0 0 0 0 0 0 0 0 0 0 0 0 0 0 0 0 0 0 0 0 0 0 0 0 0 0 0 0 0 0 0 0 0 0 0 0 0 0 0 0
0 0 0 0 0 0 0 0 0 0 0 0 0 0 0 0 0 0 0 0 0 0 0 0 0 0 0 0 0 0 0 0 0 0 0 0 0 0 0 0 0 0 0
0 0 0 0 0 0 0 0 0 0 0 0 0 0 0 0 0 0 0 0 0 0 0 0 0 0 0 0 0 0 0 0 0 0 0 0 0 0 0 0 0 0 0
0 0 0 0 0 0 0 0 0 0 0 0 0 0 0 0 0 0 0 0 0 0 0 0 0 0 0 0 0 0 0 0 0 0 0 0 0 0 0 0 0 0 0
Wind_Speed
4 4 4 4 4 3 3 3 3 4 4 4 4 4 4 4 5 6 5 12 12 12 12 12 12 12 12 12 12 12 13 13 14 14 14 14 13 13 12 12 12 12 11
4 5 5 4 4 3 3 3 4 3 3 3 3 3 3 3 4 7 5 7 11 11 11 11 12 12 12 12 13 13 13 13 14 14 14 14 14 14 13 12 12 12 12
7 6 5 4 3 4 4 4 4 3 2 2 1 2 2 3 3 5 6 4 4 8 8 9 11 12 12 13 13 13 13 13 14 14 14 15 15 15 14 14 13 13 13
9 7 5 4 4 4 4 3 2 2 3 3 2 2 1 1 1 3 4 4 3 3 4 6 9 11 11 12 13 14 14 14 14 14 15 15 16 16 16 15 15 15 15
9 7 6 5 5 4 4 3 4 3 3 3 3 1 0 1 2 2 2 4 4 2 1 3 7 10 11 13 13 14 14 14 14 15 15 16 16 17 17 17 16 16 17
9 8 6 6 6 5 4 4 3 3 2 2 3 1 1 1 2 2 2 2 3 3 2 1 2 4 10 13 14 13 13 14 14 15 16 17 17 18 18 18 18 18 18
10 9 7 7 6 5 4 5 3 4 3 3 2 2 1 1 2 2 2 1 1 3 3 1 1 2 3 10 13 13 14 15 15 16 17 18 19 19 19 20 20 20 20
10 9 9 7 6 5 6 5 3 3 2 3 2 2 3 2 2 2 2 2 2 0 0 1 1 1 2 2 7 12 13 15 16 16 18 20 21 21 21 22 22 22 22
9 9 9 8 7 6 5 5 3 3 2 2 3 3 2 2 4 3 2 1 0 0 1 1 2 2 2 2 3 6 12 14 15 17 20 22 22 23 23 23 23 23 24
9 10 10 9 8 6 6 5 4 3 3 2 1 2 2 2 1 4 4 3 3 2 3 3 3 3 3 3 4 8 13 15 17 20 23 24 24 24 24 24 24 24 24
8 10 10 9 8 6 7 6 5 3 2 2 2 1 1 0 2 2 4 4 4 3 4 4 4 4 4 3 2 6 14 16 19 22 25 25 25 25 25 25 25 25 25
7 9 10 8 8 7 7 6 5 4 3 3 2 1 1 0 1 1 3 4 5 4 5 5 6 5 4 4 5 10 14 17 21 24 26 26 26 26 26 26 26 27 27
9 9 10 8 7 7 7 6 5 4 3 2 1 1 1 1 1 1 3 4 5 4 5 4 4 4 4 1 2 11 15 20 23 25 27 27 27 27 27 27 27 27 27
8 9 10 9 8 8 7 5 4 3 3 2 0 1 0 1 1 1 2 3 5 4 3 5 5 4 3 3 7 17 9 21 25 27 28 28 28 28 28 28 28 28 28
11 11 11 9 8 7 7 5 3 4 3 1 1 1 1 1 1 1 1 2 3 5 5 4 3 5 7 6 11 8 7 18 26 27 28 28 28 28 29 29 29 29 29
13 13 11 9 8 7 6 5 4 4 2 0 1 1 1 1 1 2 2 3 3 5 8 4 5 7 8 9 16 10 9 25 26 27 28 28 29 29 29 30 30 30 29
14 12 11 9 8 7 6 5 3 4 1 1 1 1 2 1 1 2 2 3 4 5 10 8 5 6 7 9 10 8 10 9 11 24 27 28 29 29 29 30 30 30 30
12 11 10 8 8 7 5 4 3 2 1 1 2 2 3 2 2 3 3 4 4 5 8 13 7 6 8 9 10 10 12 12 9 21 27 27 28 29 30 30 30 31 30
12 10 9 8 7 6 5 4 2 2 2 2 2 3 3 2 3 3 4 4 4 7 6 9 10 7 7 9 10 11 12 9 12 16 22 24 27 29 30 31 30 30 30
12 10 9 9 7 6 4 3 2 2 3 3 3 3 3 3 4 4 4 5 6 6 6 8 10 9 9 8 8 9 10 6 9 12 17 20 24 28 29 30 31 31 30
12 11 10 8 6 5 4 5 4 4 4 5 4 4 3 6 9 8 7 5 5 5 6 8 10 11 10 8 8 8 11 9 9 10 10 11 11 11 14 21 26 28 29
11 10 9 7 5 5 6 4 3 3 4 5 5 4 4 6 10 13 15 15 14 10 9 9 10 12 12 10 8 9 11 14 14 5 7 12 11 12 11 9 21 29 29
10 9 7 6 5 6 5 3 5 3 4 5 5 4 5 6 10 4 10 14 13 19 21 14 13 12 12 10 10 12 12 14 16 10 9 15 12 13 11 14 26 29 31
8 7 6 5 4 5 5 2 6 5 5 6 5 5 4 5 6 9 6 5 7 10 15 12 10 11 11 10 12 14 14 13 13 10 8 13 13 13 13 9 21 29 30
6 6 5 4 2 3 4 3 6 3 4 6 5 5 7 6 13 17 9 8 10 9 15 20 22 22 26 27 21 11 8 10 14 12 6 8 11 13 13 12 14 22 23
6 5 4 2 2 1 1 3 6 2 4 4 4 6 11 13 16 18 10 9 11 10 10 11 13 17 14 15 21 11 7 10 13 11 4 4 8 11 11 6 5 8 13
Wind_Direction
161 131 107 106 107 114 114 86 66 61 50 37 26 22 11 26 83 99 79 74 69 65 58 49 39 30 21 13 7 3 359 357 355 353 351 350 349 348 347 349 353 353 351
136 113 105 102 99 95 91 90 78 65 59 49 23 16 12 25 77 111 112 86 80 71 58 46 33 22 13 6 1 356 352 349 346 344 342 340 338 335 331 329 331 332 332
124 118 116 116 116 111 93 75 76 65 60 19 8 63 44 33 54 108 123 124 104 84 64 41 23 13 5 359 354 350 347 344 341 338 336 334 331 326 321 318 317 317 317
128 124 126 126 121 102 90 80 60 63 55 26 359 18 33 96 49 96 107 107 102 85 61 33 15 4 356 351 347 345 344 343 340 336 334 331 327 323 317 312 310 309 309
131 130 130 130 118 104 96 86 56 54 48 11 320 281 313 168 150 113 122 124 122 112 63 6 8 356 348 343 340 340 341 340 337 335 332 328 325 321 316 311 307 304 303
133 129 132 128 115 108 107 104 103 71 47 345 310 292 214 178 147 174 190 150 160 176 187 126 29 359 351 338 336 336 337 336 336 334 331 327 324 320 315 311 307 304 300
137 139 135 127 124 124 128 126 118 90 35 352 3 342 281 201 183 203 188 167 210 203 188 171 92 43 341 334 331 329 333 335 334 332 330 326 322 318 313 309 305 302 299
143 142 136 132 124 116 103 96 96 109 62 30 42 16 1 341 303 247 180 187 226 177 104 42 38 343 317 308 308 322 330 329 328 328 326 322 319 314 309 305 302 300 297
142 138 132 128 125 120 119 113 103 104 130 68 60 77 74 330 321 320 274 203 177 309 289 292 281 269 288 294 293 318 319 320 318 320 320 319 314 308 305 303 301 299 297
140 134 130 129 123 119 121 117 103 90 95 111 85 69 108 116 30 320 321 336 352 339 317 306 297 279 271 265 271 304 313 311 311 314 317 314 308 306 305 303 302 300 299
137 132 130 128 125 123 120 114 108 88 73 86 83 52 22 55 199 220 283 304 324 322 324 310 291 277 263 252 241 284 302 307 307 310 310 307 305 304 304 304 303 302 301
135 131 130 126 122 120 119 119 113 100 83 74 58 51 65 26 347 303 286 302 297 291 299 285 281 270 252 247 260 292 302 304 305 305 304 302 302 303 304 304 302 299 297
147 141 135 128 123 122 121 122 120 120 108 94 68 37 32 2 325 294 285 292 296 298 285 278 297 304 291 287 297 305 304 305 305 303 301 301 302 303 302 300 297 296 294
144 138 132 127 126 125 126 125 123 129 118 126 142 91 358 298 306 297 286 306 306 291 283 299 306 300 331 329 304 313 308 306 304 301 300 301 302 301 300 298 296 294 293
140 136 129 129 129 127 130 135 135 137 133 161 148 61 345 304 329 320 311 289 277 291 294 279 295 335 330 312 307 307 293 302 303 301 302 302 300 299 298 297 295 294 292
140 134 129 128 125 123 123 121 116 110 100 62 138 142 284 298 323 320 302 288 273 278 286 283 300 298 304 309 306 306 298 302 302 300 298 298 298 297 297 296 295 294 292
136 132 131 128 126 127 127 126 130 128 141 288 296 254 268 283 290 291 292 284 275 273 283 288 279 289 296 296 297 289 289 285 287 295 297 297 297 297 298 296 295 293 291
128 127 127 123 122 119 117 119 122 127 205 266 285 288 283 289 292 286 278 274 278 278 285 295 297 295 293 293 293 291 298 294 288 295 298 300 300 300 298 296 294 292 291
123 119 115 112 108 104 98 85 69 28 337 301 282 270 270 280 283 280 284 285 284 289 287 298 302 297 293 292 293 292 289 288 292 298 303 301 299 297 295 296 296 296 295
117 110 104 102 102 101 95 71 34 356 329 315 306 288 271 263 263 267 278 271 276 282 287 291 295 296 292 288 288 295 297 284 291 299 296 293 293 296 296 297 296 295 293
109 105 104 101 102 110 87 57 21 354 341 325 311 297 287 290 290 289 286 276 285 285 290 292 294 296 296 298 296 294 299 299 289 284 282 285 290 286 288 290 292 290 289
106 106 108 111 113 105 89 49 359 339 328 316 306 300 299 296 296 305 311 309 306 306 302 294 294 295 297 293 291 295 299 300 297 271 285 294 289 286 285 279 288 293 294
108 109 114 124 123 120 106 35 343 337 311 295 289 287 293 297 309 301 297 302 304 303 301 296 294 292 292 291 291 291 289 288 290 294 295 292 290 287 285 289 296 297 297
115 116 116 109 109 139 126 38 346 347 311 295 290 290 293 294 297 301 290 298 286 291 292 292 283 283 289 288 283 287 290 290 286 283 272 284 291 291 293 287 293 293 293
109 110 112 111 104 130 131 28 357 332 305 307 318 327 321 302 304 312 315 299 293 289 299 299 299 299 300 301 302 300 295 295 295 293 278 275 288 297 294 287 283 289 293
106 107 108 112 109 116 103 358 345 323 314 316 314 310 313 311 312 316 311 299 300 297 292 295 298 298 295 293 301 297 293 297 296 296 278 273 294 308 299 267 262 285 290